User: anonymous   Login
Location: Unspecified
(0.0000°N, 0.0000°E)
Time: 03:48:05
(UTC+01:00)
Language:

Meteor PRIRODA - Orbit

View from above orbital plane
View from above orbital plane
View from above satellite
View from above satellite

Ground track
Ground track

The orbit data is extracted from the following two-line orbital elements,

1 12585U 81065A   17050.94043378 +.00000962 +00000-0 +47560-4 0  9995
2 12585 097.4185 032.0403 0016627 090.0589 270.2552 15.20093636938640
Epoch (UTC): 19 February 2017 22:34:13
Eccentricity: 0.0016627
inclination: 97.4185°
perigee height: 494 km
apogee height: 517 km
right ascension of ascending node: 32.0403°
argument of perigee: 90.0589°
revolutions per day: 15.20093636
mean anomaly at epoch: 270.2552°
orbit number at epoch: 93864

The dashed part of the orbit path shows where the satellite is in the earth's shadow,  

DLR